Wetbulb
45.28 39.03 37.16 40.51 44.42 41.89 43.93 37.47 35.19 35.83 38.62 37.95 36.90 37.69 39.98 37.89 36.00 43.52 46.53 47.65 49.58 51.92 53.75 54.63 55.42 56.17 57.25 59.29 59.83 60.81 60.86 60.90 60.68 58.72 60.16 60.98 61.44 62.22 62.50 62.99 63.06 63.08 62.89 62.31
39.86 36.64 41.86 43.87 42.76 43.21 37.78 39.81 37.80 36.09 37.71 36.76 36.18 37.31 36.59 36.25 37.43 39.02 43.74 42.91 46.53 45.50 45.89 48.34 49.22 52.99 54.15 57.50 59.58 60.76 61.37 61.35 61.30 61.63 59.70 60.00 61.08 62.56 63.06 63.12 62.90 62.97 62.74 62.48
39.80 40.78 43.09 40.70 39.77 36.90 37.80 35.15 34.65 35.47 35.00 33.92 33.47 34.90 34.25 36.16 35.69 37.16 37.76 38.81 40.03 44.23 45.39 44.14 43.84 45.93 51.52 54.47 57.18 59.88 61.30 61.76 61.81 61.38 59.71 61.17 61.66 61.65 61.43 62.04 62.42 60.43 61.32 61.41
38.93 43.09 41.45 39.08 37.60 38.72 33.87 37.98 37.04 34.54 34.48 30.77 32.43 27.09 32.44 33.83 36.04 36.06 37.74 36.31 37.26 37.98 41.12 43.09 42.69 43.05 43.71 49.68 52.80 57.56 60.19 61.34 61.55 60.77 60.66 60.93 60.38 59.31 60.05 60.39 56.09 53.53 54.52 54.93
37.42 36.70 37.44 36.22 37.95 40.81 37.64 38.13 36.51 35.49 32.87 30.67 29.10 26.83 32.37 29.86 32.68 34.23 36.45 37.42 38.89 39.00 40.31 42.67 42.52 43.71 43.79 44.38 44.99 47.13 56.24 58.91 60.24 60.88 61.31 60.87 60.30 59.72 58.20 54.02 51.38 49.87 49.00 49.66
38.19 39.60 38.88 37.94 38.82 41.22 39.02 36.86 35.18 33.79 30.57 25.03 31.29 27.87 28.05 31.68 32.65 35.57 37.97 38.28 39.85 38.21 38.35 40.72 42.31 44.22 45.61 45.96 44.60 42.74 46.72 57.71 58.71 59.98 61.02 61.22 59.97 57.70 55.11 51.51 48.88 46.77 45.72 45.14
36.88 37.26 37.58 37.42 36.36 37.54 38.76 34.08 26.44 25.72 22.42 24.74 26.34 25.37 34.06 33.23 34.44 36.87 40.19 40.70 40.30 37.46 37.82 40.04 42.34 43.26 44.21 44.92 44.85 43.85 46.22 51.16 58.95 59.29 60.27 61.19 59.00 57.27 54.95 50.61 46.99 44.00 42.33 41.40
31.92 29.97 36.49 38.08 37.30 32.35 35.09 34.81 25.59 19.82 20.43 25.08 25.24 24.95 31.15 35.68 35.78 35.86 36.61 37.10 37.05 37.45 38.60 40.18 41.97 42.66 43.60 44.50 43.91 44.71 46.28 48.45 55.96 59.37 59.63 58.38 57.70 55.42 52.10 48.30 45.35 42.79 40.98 39.25
30.97 31.88 36.15 35.93 38.77 39.15 33.95 33.54 33.77 25.77 18.19 21.05 24.43 27.64 32.81 33.93 35.05 35.93 36.82 35.60 36.44 37.34 39.11 40.57 41.17 42.09 43.17 43.51 43.19 43.78 45.14 48.05 50.18 53.21 52.41 51.06 49.03 47.60 44.63 42.21 40.88 39.64 37.09 36.12
31.90 26.60 32.49 36.03 39.22 37.73 35.90 37.80 29.70 29.24 17.71 17.41 21.62 22.43 28.98 30.30 35.57 36.75 37.02 37.39 37.62 37.13 38.71 40.14 40.60 40.61 41.39 41.41 41.14 41.31 42.42 45.45 45.91 46.96 47.69 46.36 44.32 42.85 40.78 39.34 36.52 36.45 34.48 33.56
32.41 30.55 28.54 33.87 32.48 32.57 32.77 32.17 32.12 32.31 28.03 21.95 19.22 25.58 30.57 34.90 36.74 38.03 38.40 39.30 38.48 37.55 39.22 40.16 39.70 39.25 39.69 39.52 39.12 39.29 39.44 41.10 42.36 41.89 41.63 41.42 40.02 39.15 38.02 36.02 34.62 33.59 32.50 31.70
33.96 30.19 25.23 28.38 32.37 36.83 36.86 34.96 35.29 29.30 25.37 22.95 24.53 27.79 32.21 33.53 34.11 35.40 35.76 37.97 38.14 38.85 39.30 39.56 38.70 37.87 37.95 38.20 37.83 38.14 37.47 37.65 39.70 40.18 40.05 38.49 37.41 36.78 35.71 33.36 32.24 31.79 31.06 30.94
35.21 29.38 22.02 26.17 30.10 31.15 32.07 32.39 33.44 34.88 29.95 27.20 25.32 28.78 33.47 33.34 35.03 36.36 36.20 37.12 37.76 38.42 38.58 38.45 38.00 37.98 37.93 37.05 36.36 36.10 35.70 35.93 36.69 37.75 37.12 35.64 34.97 34.13 32.61 30.97 30.77 30.61 30.26 29.64
40.30 32.06 28.29 24.56 26.99 30.18 27.39 32.47 33.29 32.86 28.31 29.11 29.71 31.58 33.75 35.52 36.62 36.23 36.85 37.85 37.75 38.13 38.27 38.11 37.76 36.87 35.57 35.69 35.48 34.92 33.84 34.16 35.06 35.50 35.17 33.68 32.66 32.09 30.57 30.15 29.81 29.69 29.23 28.19
36.53 30.20 28.98 28.95 29.37 32.88 31.26 32.00 33.41 32.13 33.51 29.39 32.70 30.72 32.84 35.49 37.09 36.82 37.49 37.43 37.63 37.51 37.73 37.58 36.89 35.51 35.09 35.15 34.48 33.90 33.68 33.10 32.70 32.66 32.28 30.73 29.88 29.74 29.45 28.96 28.70 28.61 27.86 27.61
32.99 24.18 28.75 25.32 30.51 29.34 28.35 31.98 33.51 34.81 34.99 34.12 34.76 34.57 39.09 35.90 35.65 36.94 37.93 37.74 37.55 38.16 38.79 38.82 37.99 36.95 36.46 36.30 35.08 34.71 33.27 32.45 32.03 30.89 29.86 29.47 29.27 28.98 28.89 28.45 28.16 27.79 27.13 26.54
32.25 27.47 23.57 20.88 26.05 27.77 22.68 29.97 30.97 32.35 34.64 35.06 31.35 37.11 35.69 35.76 35.39 36.95 37.04 38.23 38.74 39.44 39.88 39.48 38.65 37.99 38.02 37.33 36.46 34.76 33.73 32.22 30.75 30.24 29.57 29.22 28.96 28.51 28.33 27.64 26.73 26.18 25.63 25.74
33.85 28.28 25.78 20.84 22.54 19.82 29.51 31.99 33.93 33.44 35.30 36.91 37.31 35.36 36.16 38.34 36.97 38.02 39.10 39.05 39.38 40.21 39.83 40.28 40.39 39.93 39.58 38.60 36.89 36.33 34.07 32.15 30.96 30.32 29.55 28.61 28.36 27.32 26.19 25.53 25.05 24.71 24.17 24.17
34.24 33.04 27.69 22.61 16.07 26.20 32.18 31.33 30.64 29.79 32.24 35.78 35.18 37.24 35.90 34.01 34.07 36.58 38.87 40.52 41.16 41.16 42.12 42.44 42.56 41.71 40.30 38.25 37.35 34.95 32.43 31.79 30.76 29.89 29.33 28.22 27.80 26.30 24.85 24.28 23.30 22.86 22.91 22.63
33.54 34.40 31.98 22.79 25.08 17.95 27.64 35.14 35.21 35.41 29.00 36.56 35.48 35.02 35.69 34.90 31.48 37.30 39.34 39.24 40.68 41.73 42.03 41.98 41.63 41.54 40.17 38.24 36.68 33.85 32.10 31.01 30.05 29.90 29.43 28.54 27.53 25.79 24.28 23.85 22.70 21.95 21.71 22.24
25.14 28.37 29.35 28.96 26.50 24.49 31.40 31.77 34.56 27.67 29.62 30.30 34.32 36.31 33.36 35.41 37.79 36.35 37.47 37.30 37.15 38.22 38.79 39.50 40.16 40.43 40.01 37.60 34.88 33.19 32.62 31.31 32.17 30.61 28.23 25.93 25.08 24.24 23.52 22.33 20.28 20.14 20.78 20.81
27.45 27.21 24.92 23.67 26.97 24.59 30.78 31.31 32.39 34.60 31.97 33.07 34.76 33.66 33.51 34.32 34.51 33.71 34.41 36.28 36.40 35.42 35.24 38.03 39.19 39.46 38.69 35.62 34.00 33.53 32.25 32.94 30.40 27.84 26.38 24.64 22.88 23.02 22.45 21.00 19.29 19.29 19.35 18.77
26.49 29.42 27.05 31.96 30.54 33.06 30.46 31.03 31.05 32.40 32.01 30.36 32.62 33.39 34.42 32.58 32.09 33.08 33.29 32.54 32.94 33.21 34.07 34.70 33.95 33.59 32.99 32.74 33.95 33.71 33.04 29.79 27.54 27.05 25.17 22.72 21.71 21.72 20.95 19.84 18.79 18.40 18.29 19.01
26.56 29.05 27.52 29.02 28.37 29.72 30.37 29.78 30.02 30.33 30.15 31.26 31.84 32.53 33.38 33.25 32.64 31.92 31.96 31.92 31.63 28.81 28.42 27.15 29.19 28.55 27.17 29.36 31.33 32.02 27.99 27.88 27.74 26.24 23.16 21.23 20.97 19.88 19.89 20.67 19.89 19.13 18.43 19.23
27.29 30.29 25.17 25.46 28.43 28.87 29.57 30.16 30.58 30.87 31.31 30.73 31.67 31.40 30.94 30.91 31.22 31.28 30.44 28.79 28.38 26.65 25.13 25.33 26.29 26.02 25.75 25.94 25.85 26.55 27.61 28.02 27.42 24.48 21.44 20.88 20.76 19.93 19.35 19.92 19.67 19.96 20.35 21.63
31.40 28.34 28.35 24.73 30.20 30.40 31.48 31.58 31.17 31.11 30.85 30.75 30.95 30.00 30.18 30.29 30.67 29.66 26.92 26.00 25.46 25.16 23.51 23.98 23.06 23.41 22.12 23.13 22.88 24.10 26.30 27.94 24.83 21.60 20.47 20.29 19.96 19.60 19.33 18.68 17.47 22.93 22.65 23.90
MSLP
1017.59 1018.00 1017.54 1017.54 1017.83 1018.13 1018.32 1018.64 1018.65 1017.69 1017.33 1017.13 1016.96 1017.13 1017.21 1017.99 1018.73 1019.17 1019.65 1019.46 1019.75 1019.86 1019.67 1019.88 1020.01 1020.07 1020.47 1020.63 1020.91 1021.13 1021.71 1021.96 1022.45 1022.99 1023.44 1023.67 1023.85 1023.98 1024.17 1024.38 1024.53 1024.74 1025.01 1025.24
1018.11 1017.12 1017.77 1017.99 1018.23 1018.00 1018.51 1018.67 1018.54 1017.99 1017.87 1017.91 1017.17 1017.11 1017.24 1018.02 1018.13 1018.38 1018.67 1019.17 1019.13 1019.58 1019.64 1019.62 1019.80 1019.90 1020.12 1020.25 1020.29 1020.75 1020.99 1021.53 1021.97 1022.51 1022.76 1023.11 1023.31 1023.48 1023.50 1023.84 1024.19 1024.35 1024.61 1024.83
1016.79 1016.95 1017.39 1017.63 1017.57 1017.85 1018.56 1018.77 1018.71 1018.44 1018.43 1018.36 1018.27 1017.74 1017.28 1017.33 1017.72 1017.87 1018.10 1018.58 1018.84 1018.79 1019.09 1019.44 1019.58 1019.57 1019.71 1019.85 1019.99 1020.21 1020.46 1020.89 1021.32 1021.78 1022.34 1022.85 1023.16 1023.26 1023.56 1023.77 1023.93 1024.67 1024.73 1024.84
1017.32 1016.88 1016.91 1017.39 1017.47 1017.78 1018.21 1018.56 1018.70 1018.55 1018.67 1019.05 1019.04 1017.66 1017.24 1017.14 1017.31 1017.35 1017.53 1017.97 1018.15 1018.44 1018.48 1018.70 1019.03 1019.28 1019.47 1019.38 1019.52 1019.77 1019.98 1020.28 1020.79 1021.14 1021.70 1022.17 1022.56 1023.04 1023.31 1023.89 1024.67 1024.99 1025.15 1025.28
1017.24 1017.06 1017.11 1016.94 1016.66 1017.61 1017.65 1017.91 1018.41 1018.90 1019.05 1019.17 1019.50 1019.26 1016.30 1017.02 1016.95 1016.95 1017.03 1017.15 1017.09 1017.41 1017.63 1018.07 1018.40 1018.71 1019.05 1019.56 1019.51 1019.72 1019.84 1019.99 1020.36 1020.85 1021.11 1021.63 1022.29 1022.58 1023.45 1024.20 1025.00 1025.51 1025.67 1025.94
1017.62 1017.75 1017.02 1016.29 1016.60 1017.03 1017.42 1018.45 1019.67 1019.91 1019.92 1019.78 1018.50 1019.14 1016.59 1015.91 1015.74 1016.08 1015.85 1016.17 1016.04 1016.66 1017.10 1017.57 1018.18 1018.68 1019.00 1019.34 1019.56 1019.70 1019.76 1019.65 1019.93 1020.34 1020.80 1021.14 1021.81 1022.62 1023.55 1024.41 1025.19 1025.83 1026.24 1026.41
1018.07 1017.87 1017.48 1016.58 1016.56 1016.87 1017.27 1018.12 1019.89 1021.01 1020.29 1018.77 1018.92 1019.12 1015.35 1014.52 1014.55 1014.71 1014.78 1014.87 1015.40 1016.15 1016.89 1017.26 1018.01 1018.51 1018.96 1019.27 1019.34 1019.62 1019.75 1019.66 1019.60 1019.94 1020.38 1020.90 1021.39 1022.10 1023.21 1024.12 1024.79 1025.74 1026.44 1026.87
1017.27 1018.11 1017.51 1016.31 1015.75 1015.95 1016.27 1017.00 1018.21 1018.87 1019.60 1019.10 1019.36 1017.28 1014.33 1013.88 1013.73 1014.16 1014.57 1014.53 1015.22 1016.07 1016.44 1016.70 1017.34 1018.07 1018.69 1019.16 1019.35 1019.25 1019.59 1019.70 1019.68 1019.72 1019.92 1020.66 1021.22 1021.76 1023.00 1023.92 1024.77 1025.57 1026.25 1027.08
1016.59 1016.83 1016.63 1016.48 1016.15 1016.28 1017.00 1016.90 1017.58 1018.61 1020.19 1019.58 1018.04 1016.09 1014.47 1013.78 1013.87 1014.02 1014.43 1014.92 1014.92 1015.08 1015.77 1016.17 1016.82 1017.60 1018.22 1018.91 1019.37 1019.43 1019.56 1019.73 1019.85 1019.98 1020.04 1020.63 1021.19 1021.69 1022.91 1024.05 1024.74 1025.92 1026.72 1027.31
1015.05 1016.00 1016.11 1016.53 1016.30 1016.73 1017.36 1017.86 1018.43 1018.63 1019.59 1019.17 1017.29 1016.14 1014.03 1013.57 1013.65 1013.63 1014.09 1014.27 1014.39 1015.04 1015.60 1016.30 1016.89 1017.68 1018.26 1018.64 1019.08 1019.35 1019.56 1019.70 1019.92 1020.23 1020.44 1020.83 1021.53 1022.22 1022.91 1024.09 1024.90 1026.05 1026.96 1027.29
1014.43 1014.97 1016.34 1016.37 1016.06 1016.21 1017.62 1017.51 1017.77 1018.20 1018.40 1017.87 1016.58 1014.79 1013.10 1012.63 1012.82 1012.89 1012.86 1013.15 1013.89 1014.53 1015.29 1016.26 1016.80 1017.56 1018.38 1018.78 1019.26 1019.63 1019.82 1019.89 1020.10 1020.39 1020.84 1021.48 1021.95 1022.78 1023.15 1024.22 1025.16 1026.23 1026.95 1027.25
1013.96 1014.64 1016.07 1016.27 1016.11 1015.98 1016.55 1016.43 1016.82 1017.59 1017.53 1017.56 1016.65 1012.98 1012.38 1012.51 1012.66 1012.73 1012.91 1013.53 1014.10 1014.58 1015.39 1016.31 1017.02 1017.45 1018.35 1018.90 1019.42 1019.75 1019.84 1020.15 1020.39 1020.47 1020.92 1021.84 1022.31 1023.11 1023.35 1024.78 1025.70 1026.49 1027.07 1027.49
1012.50 1013.94 1015.90 1016.59 1016.59 1016.47 1016.53 1016.42 1016.35 1017.27 1017.31 1016.44 1016.50 1012.07 1011.83 1012.28 1012.18 1012.21 1012.93 1013.69 1014.40 1015.17 1015.61 1016.10 1017.00 1017.38 1017.91 1018.63 1019.30 1019.66 1019.95 1020.23 1020.64 1020.91 1021.26 1022.10 1022.78 1022.96 1023.79 1025.03 1025.94 1026.59 1027.25 1027.82
1011.92 1013.28 1013.83 1014.45 1014.23 1015.41 1016.16 1016.10 1016.28 1016.62 1016.79 1015.37 1014.27 1011.95 1012.13 1011.75 1011.70 1011.67 1012.86 1013.74 1014.43 1015.31 1015.54 1015.93 1016.52 1016.89 1017.80 1018.64 1019.29 1019.51 1019.94 1020.36 1020.68 1021.23 1021.59 1022.36 1022.98 1023.35 1024.33 1025.24 1025.85 1026.32 1026.90 1027.69
1012.16 1012.74 1013.60 1014.11 1014.11 1014.06 1014.31 1014.59 1015.02 1015.14 1013.72 1013.99 1010.25 1012.07 1012.08 1011.92 1011.75 1011.80 1012.33 1013.38 1014.24 1014.93 1015.52 1015.84 1016.31 1016.97 1018.14 1018.44 1018.91 1019.51 1019.96 1020.34 1020.82 1021.13 1021.77 1022.57 1023.12 1023.85 1024.69 1025.42 1026.04 1026.67 1027.16 1027.70
1012.39 1013.31 1014.04 1015.02 1014.66 1014.28 1014.10 1013.87 1013.29 1012.79 1011.83 1011.96 1010.86 1010.62 1011.24 1011.48 1011.33 1011.60 1012.11 1013.17 1013.81 1013.97 1014.34 1014.87 1015.48 1016.61 1017.32 1017.50 1018.11 1019.09 1019.99 1020.36 1020.80 1021.32 1021.90 1022.70 1023.51 1024.33 1024.90 1025.51 1026.13 1026.79 1027.38 1027.82
1012.60 1013.56 1014.85 1015.66 1015.39 1014.92 1014.61 1012.26 1012.48 1012.02 1010.91 1009.99 1010.72 1008.32 1010.39 1010.54 1010.81 1010.91 1011.66 1012.39 1012.62 1012.60 1013.13 1014.10 1014.80 1015.43 1015.99 1016.69 1017.24 1018.49 1019.48 1020.23 1020.91 1021.48 1022.18 1022.92 1023.69 1024.64 1025.24 1025.73 1026.26 1026.89 1027.36 1027.80
1011.63 1013.12 1014.40 1015.80 1015.99 1015.15 1012.21 1011.44 1011.04 1010.82 1009.75 1009.75 1009.23 1009.47 1009.83 1009.75 1009.89 1010.39 1010.65 1011.07 1011.28 1011.80 1012.49 1012.90 1013.40 1014.07 1014.70 1015.78 1016.87 1018.07 1019.19 1020.02 1020.59 1021.34 1022.19 1023.05 1023.68 1024.47 1025.20 1025.64 1026.18 1026.86 1027.48 1027.86
1011.26 1012.55 1014.40 1015.47 1016.04 1013.68 1011.45 1010.87 1011.13 1010.69 1009.07 1008.96 1009.22 1009.52 1009.55 1009.89 1010.17 1009.75 1009.53 1009.40 1009.60 1010.22 1010.55 1010.84 1011.51 1012.65 1013.72 1014.65 1015.82 1017.24 1018.59 1019.47 1020.35 1021.03 1021.48 1022.41 1023.27 1024.18 1024.92 1025.60 1026.15 1026.87 1027.39 1027.97
1011.99 1012.06 1013.22 1014.35 1014.92 1013.46 1010.15 1009.83 1009.84 1010.16 1008.08 1008.56 1008.85 1009.09 1009.29 1010.07 1010.46 1008.92 1008.50 1008.86 1008.91 1009.40 1009.87 1010.32 1011.02 1011.99 1012.99 1014.00 1015.15 1016.37 1017.61 1018.48 1019.20 1019.98 1020.71 1021.62 1022.84 1023.66 1024.47 1025.25 1026.12 1026.72 1027.20 1027.69
1012.89 1012.79 1012.79 1013.40 1013.88 1011.94 1010.31 1009.65 1010.01 1010.35 1008.64 1008.23 1008.29 1008.40 1009.20 1009.50 1008.96 1009.27 1009.06 1009.18 1009.48 1009.81 1010.14 1010.47 1011.02 1011.51 1012.35 1013.68 1014.80 1015.78 1016.52 1016.83 1017.76 1019.15 1020.33 1021.66 1022.68 1023.47 1024.30 1025.21 1025.99 1026.65 1027.20 1027.92
1012.02 1012.67 1012.93 1013.22 1013.05 1011.40 1009.90 1010.71 1010.37 1009.31 1008.99 1008.99 1009.02 1009.32 1009.59 1009.27 1009.55 1009.95 1009.90 1010.00 1010.27 1010.56 1010.60 1010.70 1011.08 1011.50 1012.06 1013.03 1014.06 1014.99 1015.44 1016.37 1017.59 1018.77 1019.94 1021.26 1022.31 1023.26 1024.23 1025.07 1026.03 1026.56 1027.10 1027.94
1011.72 1010.70 1011.30 1011.52 1010.35 1009.83 1009.87 1009.79 1009.82 1009.72 1009.70 1010.01 1010.07 1010.32 1010.39 1010.22 1010.54 1010.84 1011.10 1011.15 1011.34 1011.56 1011.62 1011.59 1011.74 1012.21 1012.72 1013.36 1013.89 1014.56 1015.24 1016.38 1017.54 1018.79 1019.82 1021.03 1022.25 1023.15 1024.07 1024.93 1025.81 1026.50 1027.17 1027.59
1011.49 1010.92 1010.85 1011.12 1010.44 1010.24 1010.29 1010.33 1010.48 1010.62 1010.57 1010.71 1010.82 1010.81 1011.04 1011.51 1011.44 1011.48 1011.81 1012.16 1012.46 1012.48 1012.43 1012.47 1012.63 1013.18 1013.65 1013.87 1014.25 1014.63 1015.44 1016.37 1017.45 1018.61 1019.87 1021.04 1022.01 1023.13 1023.99 1024.74 1025.31 1025.85 1026.56 1026.94
1011.59 1011.19 1011.26 1011.12 1010.85 1010.71 1010.68 1010.85 1011.11 1011.41 1011.42 1011.41 1011.59 1011.77 1012.06 1012.20 1012.32 1012.55 1012.83 1012.99 1013.48 1013.65 1013.48 1013.48 1013.52 1013.85 1014.25 1014.49 1014.86 1015.13 1015.67 1016.45 1017.56 1018.66 1019.73 1020.73 1021.69 1022.66 1023.65 1024.34 1024.66 1025.11 1025.50 1025.71
1011.43 1011.14 1011.06 1010.68 1010.73 1010.93 1011.22 1011.39 1011.65 1011.92 1012.20 1012.49 1012.63 1012.91 1013.04 1012.98 1013.08 1013.46 1013.84 1014.10 1014.12 1014.29 1014.46 1014.49 1014.41 1014.65 1015.00 1014.97 1015.26 1015.63 1016.00 1016.43 1017.40 1018.53 1019.65 1020.51 1021.42 1022.47 1023.24 1023.88 1024.60 1024.74 1024.92 1025.20
Wind_Speed
1 4 11 15 16 9 13 6 6 3 3 3 7 7 10 5 3 7 9 8 7 10 7 7 8 8 7 7 8 10 9 7 7 3 4 3 3 3 3 3 5 5 5 6
6 13 7 10 11 11 1 8 11 4 4 2 3 13 6 6 7 9 10 9 12 7 7 8 9 8 9 11 12 11 12 10 9 6 3 3 4 3 4 4 5 5 5 4
8 2 13 8 10 8 6 7 6 5 1 1 2 8 5 6 5 5 7 7 6 12 11 8 9 9 9 11 12 12 13 12 11 9 5 3 3 2 2 2 3 3 4 4
2 4 17 12 14 12 8 11 6 4 7 6 1 7 6 7 10 8 10 9 11 11 9 8 10 9 10 11 7 8 10 11 10 11 9 10 6 5 4 3 4 5 5 6
3 2 14 17 17 15 5 5 5 2 2 3 4 3 7 2 9 7 11 12 13 14 12 14 12 9 6 6 7 6 6 9 10 11 11 9 6 4 4 6 8 6 6 6
3 3 4 8 9 19 9 9 4 3 3 4 11 7 6 9 8 8 10 12 14 12 11 8 6 7 6 5 5 6 8 9 9 12 12 13 11 10 7 7 6 4 4 4
2 4 5 3 8 4 16 10 3 5 2 13 1 6 16 5 9 9 16 18 14 8 9 10 12 10 7 8 7 6 7 8 10 11 11 11 12 13 11 9 8 8 4 2
7 6 9 3 6 5 18 13 7 9 6 6 3 10 9 10 8 7 9 7 6 10 10 12 11 8 7 7 7 7 7 7 7 10 11 8 10 9 7 8 8 5 5 5
7 6 3 4 4 6 5 17 2 4 2 4 7 9 8 7 9 6 10 6 11 11 13 14 9 9 8 7 7 7 7 5 5 5 8 9 9 11 10 9 8 6 5 6
8 3 4 9 6 5 2 5 7 1 3 5 4 5 8 3 11 11 10 13 12 8 9 9 8 7 6 5 5 6 6 6 6 7 6 8 9 10 11 10 11 10 7 7
7 5 3 6 7 12 7 5 4 3 4 4 0 8 9 11 12 12 13 10 8 8 9 9 7 6 6 5 5 5 5 7 7 7 8 9 10 10 11 11 10 9 7 7
7 6 4 6 4 6 9 14 15 8 12 2 1 10 2 8 8 6 8 7 6 7 8 8 7 8 7 6 6 6 6 7 6 8 10 9 11 11 13 10 8 7 8 6
10 3 4 4 4 2 10 7 6 13 2 10 6 11 1 6 7 7 7 6 5 5 7 8 8 9 9 7 6 6 6 7 7 8 11 10 10 12 12 10 8 8 8 7
13 4 8 11 5 9 8 17 14 15 7 11 21 18 10 9 10 5 6 5 6 6 8 8 8 7 5 6 7 7 6 7 8 9 11 11 10 11 11 9 9 8 7 7
6 9 5 1 1 11 10 21 25 22 22 12 30 16 9 10 10 6 4 3 6 7 8 9 8 7 7 8 7 6 7 8 8 10 10 9 9 9 9 9 8 7 7 6
0 3 4 3 6 1 5 14 22 29 28 23 26 31 12 6 4 6 9 8 9 10 13 11 10 11 13 12 10 9 8 9 9 9 9 9 9 9 9 9 8 7 7 6
8 7 4 5 2 2 5 17 14 13 15 22 20 27 9 11 11 10 6 9 12 15 14 13 14 15 14 14 13 13 12 10 9 9 9 10 10 9 8 8 8 7 7 6
14 7 3 4 2 5 8 2 9 16 14 19 22 8 9 15 8 7 8 10 14 12 10 14 15 15 15 12 12 11 11 11 11 11 10 9 10 9 8 8 7 6 5 6
3 9 4 6 4 8 15 6 7 8 15 18 17 14 10 4 1 7 10 14 14 12 15 16 15 13 14 16 16 14 13 13 12 13 13 12 11 11 10 9 8 5 5 3
4 6 9 4 7 11 3 14 9 6 24 12 12 13 14 8 5 13 7 7 13 11 8 10 10 11 13 15 16 17 16 16 17 15 15 13 11 11 11 9 8 3 3 5
4 2 12 6 6 10 8 2 4 11 6 2 4 9 6 9 7 1 6 4 3 5 7 6 10 14 15 14 16 17 16 20 17 13 11 11 10 10 9 8 4 6 5 5
8 8 4 4 8 17 6 6 14 5 2 2 3 2 6 5 6 4 3 5 8 7 3 7 9 10 11 14 16 17 19 14 12 13 13 12 10 8 8 10 6 7 7 6
2 8 9 13 9 2 5 2 3 0 2 2 2 2 3 0 3 4 3 4 5 7 5 2 4 6 6 11 14 16 12 12 13 14 13 12 10 9 9 10 9 6 5 5
3 2 4 4 2 3 3 2 2 2 3 3 2 4 5 4 5 5 5 6 5 4 4 3 5 4 3 5 7 5 9 12 14 14 13 11 12 10 8 6 6 6 6 5
3 5 5 3 0 0 0 1 3 3 2 4 4 3 2 2 4 4 5 5 5 4 3 1 3 3 4 4 4 6 11 13 13 11 11 11 9 10 8 6 7 6 4 7
4 6 4 5 3 3 1 3 2 3 4 6 4 3 3 5 6 4 4 3 3 4 3 2 1 3 2 3 5 5 9 13 13 12 10 9 9 8 7 7 4 9 8 14
Wind_Direction
158 162 202 183 194 140 203 177 231 246 244 186 206 236 243 191 187 219 223 202 214 220 226 207 208 196 196 191 185 188 183 187 165 149 172 184 178 169 170 178 188 198 195 192
131 226 189 163 183 206 106 216 228 294 340 258 190 248 247 190 221 212 213 208 212 212 211 215 201 197 201 202 198 198 197 185 187 188 165 161 162 187 177 181 192 203 205 215
184 209 162 170 183 161 201 217 234 233 121 130 340 287 232 226 228 204 212 221 217 218 213 220 215 206 200 203 200 200 199 191 186 182 140 107 96 67 127 181 165 48 62 74
204 217 177 187 194 177 193 193 208 155 155 229 351 267 261 216 232 207 226 203 225 218 218 210 205 208 203 214 190 201 194 188 186 168 173 190 183 176 182 120 94 86 68 72
174 180 183 195 194 177 190 152 154 158 133 102 232 239 237 122 239 234 235 226 225 223 205 207 203 203 199 196 187 192 185 182 179 182 185 184 187 136 105 109 105 90 77 63
125 289 216 194 168 179 145 89 18 47 118 247 209 196 248 204 195 226 227 230 226 213 209 202 188 169 190 189 190 188 187 193 182 183 189 189 176 140 135 135 122 110 84 78
106 262 304 210 132 125 166 149 171 228 187 234 0 163 239 225 220 212 216 224 227 199 191 189 189 191 193 195 195 196 196 204 191 188 190 187 167 153 154 151 141 140 127 100
157 204 206 223 189 175 193 177 173 188 205 223 107 238 251 225 224 230 246 251 215 195 201 198 194 184 190 201 202 189 197 202 201 191 183 166 161 144 140 143 142 130 132 119
163 243 121 223 166 157 170 198 244 82 26 75 204 281 294 259 273 265 251 245 235 211 204 200 168 178 181 189 204 199 184 179 184 164 144 138 137 137 140 127 124 117 111 115
195 142 203 192 119 59 95 171 206 179 203 234 249 280 233 233 230 227 237 235 235 221 187 178 174 174 182 184 179 170 172 166 153 137 139 139 135 127 128 129 124 122 124 114
151 113 12 131 211 185 142 208 204 320 187 202 219 260 215 204 221 228 231 243 245 204 191 186 164 161 174 161 166 162 153 147 146 134 130 134 128 130 122 118 122 128 126 126
199 122 142 189 332 160 200 203 201 193 206 239 33 255 196 237 274 268 268 247 204 178 171 167 164 156 167 173 167 175 155 147 148 139 131 133 129 140 120 121 122 128 126 117
170 165 84 34 337 74 210 199 165 216 360 238 238 250 236 243 262 256 268 243 225 193 168 158 159 178 181 176 171 164 159 148 140 140 133 134 142 130 123 129 130 126 124 122
155 155 159 186 208 137 189 195 193 189 202 246 252 269 303 300 297 246 213 213 188 196 189 186 188 182 156 159 170 167 154 148 142 143 141 143 144 132 132 136 136 133 132 129
175 204 157 127 189 172 178 192 200 209 217 213 241 243 216 246 274 309 300 181 183 197 207 202 191 167 177 174 175 162 159 155 152 144 144 141 128 125 131 131 128 126 125 130
125 230 117 1 339 244 201 200 202 211 216 227 245 261 255 255 256 239 224 193 211 213 215 203 185 184 194 190 179 169 166 160 154 150 142 137 134 138 141 137 137 132 129 132
148 131 101 227 327 65 320 224 202 213 215 217 230 244 180 226 237 243 240 201 219 218 211 200 196 198 194 191 175 176 171 157 156 149 146 146 145 148 147 139 137 144 144 136
179 122 104 156 83 191 236 273 218 215 221 226 246 240 211 235 244 234 211 208 223 218 195 203 202 202 196 178 172 167 166 169 164 160 157 155 155 151 149 148 149 140 141 146
142 169 122 143 188 294 279 178 148 172 255 227 236 241 228 226 90 273 222 218 225 207 209 210 205 195 181 178 172 165 168 172 170 175 171 168 167 160 157 162 157 146 134 132
73 166 177 123 185 222 336 196 176 117 270 188 201 214 217 145 205 247 251 211 228 220 207 203 187 180 181 181 170 169 177 177 186 183 178 170 166 163 167 157 150 130 131 145
97 74 198 163 224 275 238 177 131 176 257 285 214 225 145 198 210 83 358 14 321 238 217 164 168 184 187 171 170 185 183 195 185 171 158 156 161 159 151 140 126 141 129 122
147 147 179 98 219 256 155 64 188 227 341 64 50 34 217 269 311 314 311 320 335 329 287 192 182 191 177 170 174 188 199 181 164 156 155 158 152 149 148 144 137 138 139 149
191 177 175 188 210 225 190 13 43 339 113 36 84 2 334 59 10 346 349 358 344 332 311 268 182 150 155 171 185 194 190 157 156 159 158 152 145 144 149 150 150 143 151 160
288 200 156 98 227 212 208 97 108 14 107 108 72 48 27 355 353 8 4 358 350 353 342 347 110 130 156 173 189 182 144 152 159 162 157 151 151 149 150 148 156 154 171 171
192 130 154 285 305 187 1 186 106 121 71 86 77 86 80 19 17 19 1 359 347 339 341 4 143 143 172 144 137 132 149 155 163 158 157 158 155 159 156 166 172 180 186 183
183 174 177 216 169 118 80 60 77 99 69 43 64 71 39 48 39 21 6 340 338 328 329 334 114 126 171 143 137 138 155 164 157 156 161 164 156 159 164 167 163 209 207 205